Flag for Germany Weather past 2 weeks in Duisburg, North Rhine-Westphalia, Germany

Now
73 °F

Sunny.


Feels Like: 74 °F
Forecast: 70 / 86 °F
Wind: 3 mph from North

Location: Duesseldorf

Current Time: Aug 30, 2015 at 11:00:47 AM

Latest Report: Aug 30, 2015 at 10:20 AM


Visibility: 10 mi

Pressure: 30.01 "Hg

Humidity: 78%

Dew point: 66 °F

Location of DuisburgLocation

Historic Weather in Duisburg — Graph

°F

Duisburg temperature yesterday

Maximum temperature yesterday: 79 °F (at 3:50 PM)
Minimum temperature yesterday: 52 °F (at 2:20 AM)
Average temperature yesterday: 66 °F

Past Weeks' High & Low Weather Summary

 TemperatureHumidityPressure
High81 °F (Aug 22, 3:50 PM)100% (Aug 16, 2:50 AM)30.24 "Hg (Aug 16, 2:50 AM)
Low50 °F (Aug 19, 4:50 AM)30% (Aug 22, 5:20 PM)29.50 "Hg (Aug 24, 4:50 PM)
Average65 °F74%29.96 "Hg
* Reported Aug 15 9:20 AM — Aug 30 9:50 AM, Duisburg, Weather by CustomWeather, © 2015

Note: Actual official high and low records may vary slightly from our data, if they occured in-between our weather recording intervals... More about our weather records

Advertising

Duisburg weather history for previous 24 hours

 ConditionsComfort  
Time TempWeatherWind HumidityBarometerVisibility
9:50 AM
Sun, Aug 30
72 °FScattered clouds.3 mph78%30.04 "HgN/A
9:20 AM70 °FScattered clouds.5 mph83%30.04 "HgN/A
8:50 AM70 °FScattered clouds.5 mph83%30.04 "HgN/A
8:20 AM68 °FBroken clouds.7 mph83%30.04 "HgN/A
7:50 AM66 °FScattered clouds.10 mph88%30.04 "HgN/A
7:20 AM64 °FPassing clouds.7 mph88%30.04 "HgN/A
6:50 AM64 °FPassing clouds.8 mph88%30.04 "HgN/A
6:20 AM64 °FClear.7 mph88%30.04 "Hg10 mi
5:50 AM64 °FClear.6 mph94%30.04 "Hg10 mi
5:20 AM64 °FClear.3 mph88%30.04 "Hg10 mi
4:50 AM64 °FClear.3 mph88%30.04 "Hg10 mi
4:20 AM64 °FClear.3 mph88%30.04 "Hg10 mi
3:50 AM64 °FClear.5 mph88%30.04 "Hg10 mi
3:20 AM64 °FClear.5 mph94%30.04 "Hg10 mi
2:50 AM64 °FClear.3 mph94%30.07 "Hg10 mi
2:20 AM64 °FClear.3 mph88%30.07 "Hg10 mi
1:50 AM64 °FClear.5 mph88%30.07 "Hg10 mi
1:20 AM64 °FClear.3 mph94%30.07 "Hg10 mi
12:50 AM66 °FClear.5 mph83%30.07 "Hg10 mi
12:20 AM66 °FClear.6 mph88%30.07 "Hg10 mi
11:50 PM
Sat, Aug 29
66 °FClear.3 mph88%30.07 "Hg10 mi
11:20 PM66 °FClear.5 mph88%30.09 "Hg10 mi
10:50 PM68 °FClear.5 mph83%30.09 "Hg10 mi
10:20 PM68 °FClear.3 mph83%30.09 "Hg10 mi
9:50 PM68 °FClear.6 mph83%30.09 "Hg10 mi
9:20 PM70 °FSunny.5 mph78%30.09 "Hg10 mi
8:50 PM72 °FSunny.5 mph73%30.09 "Hg10 mi
8:20 PM73 °FSunny.6 mph69%30.09 "Hg10 mi
7:50 PM75 °FScattered clouds.5 mph65%30.09 "HgN/A
7:20 PM75 °FPassing clouds.6 mph61%30.09 "HgN/A
6:50 PM77 °FPassing clouds.5 mph61%30.09 "HgN/A
6:20 PM77 °FScattered clouds.5 mph57%30.09 "HgN/A
5:50 PM79 °FScattered clouds.3 mph54%30.12 "HgN/A
5:20 PM79 °FPassing clouds.3 mph54%30.12 "HgN/A
4:50 PM79 °FPassing clouds.2 mph54%30.12 "HgN/A
4:20 PM77 °FScattered clouds.3 mph54%30.12 "HgN/A
3:50 PM79 °FScattered clouds.2 mph54%30.12 "HgN/A
3:20 PM75 °FScattered clouds.3 mph54%30.15 "HgN/A
2:50 PM75 °FScattered clouds.1 mph57%30.15 "HgN/A
2:20 PM75 °FScattered clouds.2 mph57%30.15 "HgN/A
1:50 PM75 °FScattered clouds.5 mph54%30.18 "HgN/A
1:20 PM73 °FScattered clouds.3 mph61%30.18 "HgN/A
12:50 PM72 °FScattered clouds.3 mph61%30.18 "HgN/A
11:50 AM72 °FPassing clouds.3 mph61%30.18 "HgN/A
11:20 AM70 °FPassing clouds.5 mph64%30.18 "HgN/A
Weather by CustomWeather, © 2015

See weather overviewHow to use our weather pages